TimeCDT,TemperatureF,Dew PointF,Humidity,Sea Level PressureIn,VisibilityMPH,Wind Direction,Wind SpeedMPH,Gust SpeedMPH,PrecipitationIn,Events,Conditions,WindDirDegrees,DateUTC
12:55 AM,28.0,19.9,72,30.40,10.0,NNW,13.8,-,N/A,,Overcast,340,2013-04-23 05:55:00
1:55 AM,23.0,17.1,78,30.40,10.0,NNW,8.1,-,N/A,,Partly Cloudy,330,2013-04-23 06:55:00
2:55 AM,17.1,14.0,88,30.39,10.0,NW,8.1,-,N/A,,Clear,310,2013-04-23 07:55:00
3:55 AM,16.0,12.9,88,30.37,10.0,NNW,8.1,-,N/A,,Clear,330,2013-04-23 08:55:00
4:55 AM,14.0,10.9,88,30.37,10.0,NW,8.1,-,N/A,,Clear,320,2013-04-23 09:55:00
5:55 AM,10.9,9.0,92,30.36,10.0,NW,6.9,-,N/A,,Clear,310,2013-04-23 10:55:00
6:55 AM,10.9,8.1,88,30.37,10.0,NW,5.8,-,N/A,,Clear,310,2013-04-23 11:55:00
7:55 AM,14.0,9.0,80,30.38,10.0,WNW,6.9,-,N/A,,Clear,290,2013-04-23 12:55:00
8:55 AM,19.9,14.0,78,30.38,10.0,WNW,6.9,-,N/A,,Clear,300,2013-04-23 13:55:00
9:55 AM,24.1,16.0,71,30.36,10.0,NW,8.1,-,N/A,,Clear,310,2013-04-23 14:55:00
10:55 AM,27.0,19.0,72,30.35,10.0,West,6.9,-,N/A,,Clear,280,2013-04-23 15:55:00
11:55 AM,30.9,19.9,64,30.33,10.0,NW,8.1,-,N/A,,Clear,310,2013-04-23 16:55:00
12:55 PM,33.1,19.9,59,30.30,10.0,West,6.9,-,N/A,,Clear,280,2013-04-23 17:55:00
1:55 PM,34.0,23.0,64,30.28,10.0,West,9.2,-,N/A,,Clear,280,2013-04-23 18:55:00
2:55 PM,37.0,25.0,62,30.27,10.0,West,8.1,-,N/A,,Clear,280,2013-04-23 19:55:00
3:55 PM,37.9,26.1,62,30.24,10.0,WNW,9.2,-,N/A,,Clear,290,2013-04-23 20:55:00
4:55 PM,41.0,27.0,57,30.22,10.0,West,11.5,-,N/A,,Clear,270,2013-04-23 21:55:00
5:55 PM,41.0,27.0,57,30.20,10.0,West,9.2,-,N/A,,Clear,270,2013-04-23 22:55:00
6:55 PM,41.0,26.1,55,30.19,10.0,West,10.4,-,N/A,,Clear,270,2013-04-23 23:55:00
7:55 PM,39.0,26.1,60,30.18,10.0,WSW,5.8,-,N/A,,Clear,240,2013-04-24 00:55:00
8:55 PM,35.1,25.0,67,30.18,10.0,WSW,6.9,-,N/A,,Clear,240,2013-04-24 01:55:00
9:55 PM,34.0,26.1,73,30.18,10.0,WSW,8.1,-,N/A,,Clear,240,2013-04-24 02:55:00
10:55 PM,32.0,26.1,79,30.17,10.0,WSW,8.1,-,N/A,,Clear,240,2013-04-24 03:55:00
11:55 PM,30.9,25.0,79,30.15,10.0,WSW,9.2,-,N/A,,Clear,250,2013-04-24 04:55:00